Time,TemperatureF,DewpointF,PressureIn,WindDirection,WindDirectionDegrees,WindSpeedMPH,WindSpeedGustMPH,Humidity,HourlyPrecipIn,Conditions,Clouds,dailyrainin,SoftwareType,DateUTC
2013-08-04 00:01:00,69.3,66.6,29.86,WSW,250,0.0,3.0,91,0.00,,---,0.00,VWS V14.01,2013-08-04 04:01:00,
2013-08-04 00:02:00,69.2,66.5,29.86,WSW,250,4.0,9.0,91,0.00,,---,0.00,VWS V14.01,2013-08-04 04:02:00,
2013-08-04 00:07:00,69.1,66.4,29.86,West,265,1.0,5.0,91,0.00,,---,0.00,VWS V14.01,2013-08-04 04:07:00,
2013-08-04 00:12:00,69.0,66.3,29.86,WSW,240,4.0,9.0,91,0.00,,---,0.00,VWS V14.01,2013-08-04 04:12:00,
2013-08-04 00:17:00,68.8,66.1,29.86,WSW,245,3.0,6.0,91,0.00,,---,0.00,VWS V14.01,2013-08-04 04:17:00,
2013-08-04 00:22:00,68.7,66.0,29.86,WSW,245,4.0,5.0,91,0.00,,---,0.00,VWS V14.01,2013-08-04 04:22:00,
2013-08-04 00:27:00,68.6,65.9,29.85,West,267,0.0,6.0,91,0.00,,---,0.00,VWS V14.01,2013-08-04 04:27:00,
2013-08-04 00:32:00,68.5,65.8,29.85,WSW,258,2.0,5.0,91,0.00,,---,0.00,VWS V14.01,2013-08-04 04:32:00,
2013-08-04 00:37:00,68.5,65.8,29.86,West,281,1.0,4.0,91,0.00,,---,0.00,VWS V14.01,2013-08-04 04:37:00,
2013-08-04 00:42:00,68.5,65.8,29.85,West,270,0.0,6.0,91,0.00,,---,0.00,VWS V14.01,2013-08-04 04:42:00,
2013-08-04 00:47:00,68.4,65.7,29.85,West,261,5.0,5.0,91,0.00,,---,0.00,VWS V14.01,2013-08-04 04:47:00,
2013-08-04 00:52:00,68.3,65.3,29.85,West,279,3.0,6.0,90,0.00,,---,0.00,VWS V14.01,2013-08-04 04:52:00,
2013-08-04 00:57:00,68.3,65.3,29.85,West,269,4.0,5.0,90,0.00,,---,0.00,VWS V14.01,2013-08-04 04:57:00,
2013-08-04 01:02:00,68.2,65.2,29.85,West,268,5.0,7.0,90,0.00,,---,0.00,VWS V14.01,2013-08-04 05:02:00,
2013-08-04 01:07:00,68.1,65.1,29.85,West,278,3.0,7.0,90,0.00,,---,0.00,VWS V14.01,2013-08-04 05:07:00,
2013-08-04 01:12:00,68.1,64.7,29.84,WNW,282,4.0,6.0,89,0.00,,---,0.00,VWS V14.01,2013-08-04 05:12:00,
2013-08-04 01:17:00,68.1,64.7,29.84,WSW,256,3.0,7.0,89,0.00,,---,0.00,VWS V14.01,2013-08-04 05:17:00,
2013-08-04 01:22:00,68.1,64.4,29.84,West,278,1.0,6.0,88,0.00,,---,0.00,VWS V14.01,2013-08-04 05:22:00,
2013-08-04 01:27:00,68.1,64.4,29.84,WNW,297,3.0,7.0,88,0.00,,---,0.00,VWS V14.01,2013-08-04 05:27:00,
2013-08-04 01:32:00,68.0,64.3,29.84,WNW,289,1.0,7.0,88,0.00,,---,0.00,VWS V14.01,2013-08-04 05:32:00,
2013-08-04 01:37:00,68.0,64.0,29.84,WNW,299,1.0,7.0,87,0.00,,---,0.00,VWS V14.01,2013-08-04 05:37:00,
2013-08-04 01:42:00,67.9,63.9,29.84,West,270,4.0,9.0,87,0.00,,---,0.00,VWS V14.01,2013-08-04 05:42:00,
2013-08-04 01:47:00,68.0,64.0,29.84,WSW,258,0.0,9.0,87,0.00,,---,0.00,VWS V14.01,2013-08-04 05:47:00,
2013-08-04 01:52:00,67.9,63.6,29.84,WNW,287,4.0,10.0,86,0.00,,---,0.00,VWS V14.01,2013-08-04 05:52:00,
2013-08-04 01:57:00,67.8,63.8,29.84,WNW,293,1.0,7.0,87,0.00,,---,0.00,VWS V14.01,2013-08-04 05:57:00,
2013-08-04 02:02:00,67.7,63.4,29.84,WNW,291,4.0,7.0,86,0.00,,---,0.00,VWS V14.01,2013-08-04 06:02:00,
2013-08-04 02:07:00,67.7,63.4,29.84,West,281,2.0,5.0,86,0.00,,---,0.00,VWS V14.01,2013-08-04 06:07:00,
2013-08-04 02:12:00,67.5,63.2,29.84,West,278,1.0,5.0,86,0.00,,---,0.00,VWS V14.01,2013-08-04 06:12:00,
2013-08-04 02:17:00,67.4,62.7,29.84,WNW,293,1.0,9.0,85,0.00,,---,0.00,VWS V14.01,2013-08-04 06:17:00,
2013-08-04 02:22:00,67.4,62.7,29.84,WSW,249,10.0,10.0,85,0.00,,---,0.00,VWS V14.01,2013-08-04 06:22:00,
2013-08-04 02:27:00,67.3,62.6,29.84,West,272,4.0,6.0,85,0.00,,---,0.00,VWS V14.01,2013-08-04 06:27:00,
2013-08-04 02:32:00,67.2,62.5,29.84,WNW,291,2.0,6.0,85,0.00,,---,0.00,VWS V14.01,2013-08-04 06:32:00,
2013-08-04 02:37:00,67.1,62.1,29.84,West,265,0.0,5.0,84,0.00,,---,0.00,VWS V14.01,2013-08-04 06:37:00,
2013-08-04 02:42:00,67.0,61.7,29.84,West,267,5.0,7.0,83,0.00,,---,0.00,VWS V14.01,2013-08-04 06:42:00,
2013-08-04 02:47:00,67.0,61.3,29.84,WNW,289,3.0,10.0,82,0.00,,---,0.00,VWS V14.01,2013-08-04 06:47:00,
2013-08-04 02:52:00,66.9,61.6,29.84,West,280,2.0,5.0,83,0.00,,---,0.00,VWS V14.01,2013-08-04 06:52:00,
2013-08-04 02:57:00,66.8,61.1,29.84,West,262,3.0,6.0,82,0.00,,---,0.00,VWS V14.01,2013-08-04 06:57:00,
2013-08-04 03:02:00,66.6,60.9,29.84,NW,312,0.0,4.0,82,0.00,,---,0.00,VWS V14.01,2013-08-04 07:02:00,
2013-08-04 03:07:00,66.4,60.0,29.84,WNW,287,4.0,7.0,80,0.00,,---,0.00,VWS V14.01,2013-08-04 07:07:00,
2013-08-04 03:12:00,66.4,59.7,29.84,WNW,297,1.0,3.0,79,0.00,,---,0.00,VWS V14.01,2013-08-04 07:12:00,
2013-08-04 03:17:00,66.3,59.6,29.83,WNW,292,1.0,4.0,79,0.00,,---,0.00,VWS V14.01,2013-08-04 07:17:00,
2013-08-04 03:22:00,66.1,59.0,29.83,NW,305,1.0,6.0,78,0.00,,---,0.00,VWS V14.01,2013-08-04 07:22:00,
2013-08-04 03:27:00,66.0,59.0,29.83,WNW,295,2.0,5.0,78,0.00,,---,0.00,VWS V14.01,2013-08-04 07:27:00,
2013-08-04 03:32:00,65.9,58.9,29.83,WNW,295,2.0,6.0,78,0.00,,---,0.00,VWS V14.01,2013-08-04 07:32:00,
2013-08-04 03:37:00,65.7,58.7,29.83,WNW,287,2.0,5.0,78,0.00,,---,0.00,VWS V14.01,2013-08-04 07:37:00,
2013-08-04 03:42:00,65.6,58.6,29.83,WNW,284,0.0,7.0,78,0.00,,---,0.00,VWS V14.01,2013-08-04 07:42:00,
2013-08-04 03:47:00,65.5,58.5,29.84,WNW,284,3.0,4.0,78,0.00,,---,0.00,VWS V14.01,2013-08-04 07:47:00,
2013-08-04 03:52:00,65.3,58.3,29.83,WNW,283,2.0,5.0,78,0.00,,---,0.00,VWS V14.01,2013-08-04 07:52:00,
2013-08-04 03:57:00,65.2,58.2,29.83,WNW,300,1.0,4.0,78,0.00,,---,0.00,VWS V14.01,2013-08-04 07:57:00,
2013-08-04 04:02:00,65.1,58.1,29.84,WNW,299,0.0,5.0,78,0.00,,---,0.00,VWS V14.01,2013-08-04 08:02:00,
2013-08-04 04:07:00,65.0,58.3,29.84,WNW,299,2.0,5.0,79,0.00,,---,0.00,VWS V14.01,2013-08-04 08:07:00,
2013-08-04 04:12:00,64.9,58.2,29.84,WNW,299,1.0,3.0,79,0.00,,---,0.00,VWS V14.01,2013-08-04 08:12:00,
2013-08-04 04:17:00,64.8,57.8,29.84,WNW,299,0.0,3.0,78,0.00,,---,0.00,VWS V14.01,2013-08-04 08:17:00,
2013-08-04 04:22:00,64.7,57.7,29.84,WNW,298,1.0,5.0,78,0.00,,---,0.00,VWS V14.01,2013-08-04 08:22:00,
2013-08-04 04:27:00,64.7,57.7,29.84,WNW,297,0.0,3.0,78,0.00,,---,0.00,VWS V14.01,2013-08-04 08:27:00,
2013-08-04 04:32:00,64.6,58.0,29.84,WNW,297,0.0,3.0,79,0.00,,---,0.00,VWS V14.01,2013-08-04 08:32:00,
2013-08-04 04:38:00,64.5,57.8,29.84,WNW,297,0.0,2.0,79,0.00,,---,0.00,VWS V14.01,2013-08-04 08:38:00,
2013-08-04 04:42:00,64.5,57.8,29.84,WNW,297,0.0,1.0,79,0.00,,---,0.00,VWS V14.01,2013-08-04 08:42:00,
2013-08-04 04:47:00,64.4,57.8,29.84,WNW,297,0.0,5.0,79,0.00,,---,0.00,VWS V14.01,2013-08-04 08:47:00,
2013-08-04 04:53:00,64.3,57.7,29.84,WNW,297,0.0,2.0,79,0.00,,---,0.00,VWS V14.01,2013-08-04 08:53:00,
2013-08-04 04:58:00,64.2,57.2,29.84,WNW,297,1.0,2.0,78,0.00,,---,0.00,VWS V14.01,2013-08-04 08:58:00,
2013-08-04 05:03:00,64.2,57.2,29.84,WNW,297,1.0,4.0,78,0.00,,---,0.00,VWS V14.01,2013-08-04 09:03:00,
2013-08-04 05:08:00,64.2,57.2,29.84,WNW,297,0.0,3.0,78,0.00,,---,0.00,VWS V14.01,2013-08-04 09:08:00,
2013-08-04 05:12:00,64.1,57.1,29.84,WNW,298,0.0,2.0,78,0.00,,---,0.00,VWS V14.01,2013-08-04 09:12:00,
2013-08-04 05:18:00,64.0,57.0,29.84,WNW,297,2.0,2.0,78,0.00,,---,0.00,VWS V14.01,2013-08-04 09:18:00,
2013-08-04 05:23:00,63.8,57.2,29.84,WNW,297,2.0,4.0,79,0.00,,---,0.00,VWS V14.01,2013-08-04 09:23:00,
2013-08-04 05:27:00,63.8,57.2,29.84,WNW,297,1.0,3.0,79,0.00,,---,0.00,VWS V14.01,2013-08-04 09:27:00,
2013-08-04 05:33:00,63.7,57.1,29.84,WNW,297,1.0,4.0,79,0.00,,---,0.00,VWS V14.01,2013-08-04 09:33:00,
2013-08-04 05:38:00,63.6,57.0,29.84,WNW,297,0.0,4.0,79,0.00,,---,0.00,VWS V14.01,2013-08-04 09:38:00,
2013-08-04 05:43:00,63.5,56.9,29.84,West,261,1.0,1.0,79,0.00,,---,0.00,VWS V14.01,2013-08-04 09:43:00,
2013-08-04 05:48:00,63.4,56.8,29.85,West,262,0.0,2.0,79,0.00,,---,0.00,VWS V14.01,2013-08-04 09:48:00,
2013-08-04 05:53:00,63.3,57.0,29.84,WNW,299,1.0,7.0,80,0.00,,---,0.00,VWS V14.01,2013-08-04 09:53:00,
2013-08-04 05:58:00,63.2,57.3,29.84,WNW,298,1.0,4.0,81,0.00,,---,0.00,VWS V14.01,2013-08-04 09:58:00,
2013-08-04 06:03:00,63.1,56.8,29.84,WNW,296,2.0,5.0,80,0.00,,---,0.00,VWS V14.01,2013-08-04 10:03:00,
2013-08-04 06:08:00,63.1,57.2,29.84,WNW,296,1.0,1.0,81,0.00,,---,0.00,VWS V14.01,2013-08-04 10:08:00,
2013-08-04 06:13:00,63.0,57.1,29.84,WNW,296,0.0,4.0,81,0.00,,---,0.00,VWS V14.01,2013-08-04 10:13:00,
2013-08-04 06:18:00,62.8,56.5,29.85,WNW,296,0.0,4.0,80,0.00,,---,0.00,VWS V14.01,2013-08-04 10:18:00,
2013-08-04 06:23:00,62.9,56.6,29.85,WNW,296,0.0,3.0,80,0.00,,---,0.00,VWS V14.01,2013-08-04 10:23:00,
2013-08-04 06:28:00,63.0,57.1,29.84,WNW,297,2.0,3.0,81,0.00,,---,0.00,VWS V14.01,2013-08-04 10:28:00,
2013-08-04 06:33:00,63.1,57.2,29.84,WNW,297,0.0,1.0,81,0.00,,---,0.00,VWS V14.01,2013-08-04 10:33:00,
2013-08-04 06:38:00,63.4,57.1,29.84,WNW,297,0.0,0.0,80,0.00,,---,0.00,VWS V14.01,2013-08-04 10:38:00,
2013-08-04 06:43:00,63.8,57.5,29.85,WSW,237,1.0,4.0,80,0.00,,---,0.00,VWS V14.01,2013-08-04 10:43:00,
2013-08-04 06:48:00,64.1,57.5,29.85,WSW,238,0.0,4.0,79,0.00,,---,0.00,VWS V14.01,2013-08-04 10:48:00,
2013-08-04 06:53:00,64.3,57.3,29.84,WSW,238,1.0,4.0,78,0.00,,---,0.00,VWS V14.01,2013-08-04 10:53:00,
2013-08-04 06:58:00,64.4,57.4,29.85,WSW,238,0.0,1.0,78,0.00,,---,0.00,VWS V14.01,2013-08-04 10:58:00,
2013-08-04 07:03:00,64.7,57.7,29.85,WSW,245,0.0,5.0,78,0.00,,---,0.00,VWS V14.01,2013-08-04 11:03:00,
2013-08-04 07:08:00,65.0,58.3,29.85,WSW,245,0.0,2.0,79,0.00,,---,0.00,VWS V14.01,2013-08-04 11:08:00,
2013-08-04 07:13:00,65.4,58.0,29.85,WSW,243,0.0,4.0,77,0.00,,---,0.00,VWS V14.01,2013-08-04 11:13:00,
2013-08-04 07:18:00,65.7,58.3,29.85,WSW,244,0.0,1.0,77,0.00,,---,0.00,VWS V14.01,2013-08-04 11:18:00,
2013-08-04 07:23:00,66.1,58.3,29.85,WSW,245,1.0,5.0,76,0.00,,---,0.00,VWS V14.01,2013-08-04 11:23:00,
2013-08-04 07:28:00,66.5,58.0,29.85,WSW,245,0.0,5.0,74,0.00,,---,0.00,VWS V14.01,2013-08-04 11:28:00,
2013-08-04 07:33:00,66.9,58.3,29.85,WSW,245,0.0,4.0,74,0.00,,---,0.00,VWS V14.01,2013-08-04 11:33:00,
2013-08-04 07:38:00,67.3,58.7,29.86,WSW,245,0.0,4.0,74,0.00,,---,0.00,VWS V14.01,2013-08-04 11:38:00,
2013-08-04 07:43:00,67.7,58.7,29.86,WSW,245,1.0,5.0,73,0.00,,---,0.00,VWS V14.01,2013-08-04 11:43:00,
2013-08-04 07:48:00,67.9,58.9,29.86,WSW,246,3.0,5.0,73,0.00,,---,0.00,VWS V14.01,2013-08-04 11:48:00,
2013-08-04 07:53:00,68.1,58.7,29.85,West,270,4.0,6.0,72,0.00,,---,0.00,VWS V14.01,2013-08-04 11:53:00,
2013-08-04 07:58:00,68.4,58.2,29.86,WNW,297,3.0,10.0,70,0.00,,---,0.00,VWS V14.01,2013-08-04 11:58:00,
2013-08-04 08:03:00,68.3,58.5,29.85,WNW,299,1.0,9.0,71,0.00,,---,0.00,VWS V14.01,2013-08-04 12:03:00,
2013-08-04 08:08:00,68.2,59.2,29.85,NW,313,3.0,5.0,73,0.00,,---,0.00,VWS V14.01,2013-08-04 12:08:00,
2013-08-04 08:13:00,68.6,59.6,29.85,WNW,299,0.0,5.0,73,0.00,,---,0.00,VWS V14.01,2013-08-04 12:13:00,
2013-08-04 08:18:00,69.1,59.3,29.86,WNW,289,2.0,5.0,71,0.00,,---,0.00,VWS V14.01,2013-08-04 12:18:00,
2013-08-04 08:23:00,69.2,59.4,29.85,WNW,289,1.0,3.0,71,0.00,,---,0.00,VWS V14.01,2013-08-04 12:23:00,
2013-08-04 08:28:00,69.3,59.5,29.85,NW,311,3.0,10.0,71,0.00,,---,0.00,VWS V14.01,2013-08-04 12:28:00,
2013-08-04 08:33:00,69.5,58.9,29.85,WNW,293,8.0,9.0,69,0.00,,---,0.00,VWS V14.01,2013-08-04 12:33:00,
2013-08-04 08:38:00,69.7,59.5,29.85,NW,318,3.0,7.0,70,0.00,,---,0.00,VWS V14.01,2013-08-04 12:38:00,
2013-08-04 08:43:00,69.9,58.9,29.85,WNW,295,5.0,10.0,68,0.00,,---,0.00,VWS V14.01,2013-08-04 12:43:00,
2013-08-04 08:48:00,70.1,59.1,29.85,NW,312,2.0,8.0,68,0.00,,---,0.00,VWS V14.01,2013-08-04 12:48:00,
2013-08-04 08:53:00,70.5,60.3,29.85,WNW,293,3.0,5.0,70,0.00,,---,0.00,VWS V14.01,2013-08-04 12:53:00,
2013-08-04 08:58:00,70.9,60.2,29.85,WNW,296,2.0,5.0,69,0.00,,---,0.00,VWS V14.01,2013-08-04 12:58:00,
2013-08-04 09:03:00,71.5,60.0,29.85,NW,308,1.0,6.0,67,0.00,,---,0.00,VWS V14.01,2013-08-04 13:03:00,
2013-08-04 09:08:00,72.1,59.7,29.85,West,273,3.0,6.0,65,0.00,,---,0.00,VWS V14.01,2013-08-04 13:08:00,
2013-08-04 09:13:00,72.5,59.6,29.85,West,273,1.0,6.0,64,0.00,,---,0.00,VWS V14.01,2013-08-04 13:13:00,
2013-08-04 09:18:00,72.5,59.2,29.85,West,279,2.0,6.0,63,0.00,,---,0.00,VWS V14.01,2013-08-04 13:18:00,
2013-08-04 09:23:00,72.5,60.5,29.85,West,280,2.0,5.0,66,0.00,,---,0.00,VWS V14.01,2013-08-04 13:23:00,
2013-08-04 09:28:00,72.6,60.6,29.85,WNW,297,3.0,7.0,66,0.00,,---,0.00,VWS V14.01,2013-08-04 13:28:00,
2013-08-04 09:33:00,73.0,60.5,29.85,WNW,298,3.0,3.0,65,0.00,,---,0.00,VWS V14.01,2013-08-04 13:33:00,
2013-08-04 09:38:00,72.8,59.9,29.85,WNW,299,2.0,4.0,64,0.00,,---,0.00,VWS V14.01,2013-08-04 13:38:00,
2013-08-04 09:43:00,72.5,58.8,29.84,WNW,301,2.0,5.0,62,0.00,,---,0.00,VWS V14.01,2013-08-04 13:43:00,
2013-08-04 09:48:00,72.4,60.4,29.84,WNW,302,0.0,4.0,66,0.00,,---,0.00,VWS V14.01,2013-08-04 13:48:00,
2013-08-04 09:53:00,72.6,60.2,29.84,WNW,301,2.0,4.0,65,0.00,,---,0.00,VWS V14.01,2013-08-04 13:53:00,
2013-08-04 09:58:00,73.2,60.7,29.84,WNW,301,0.0,3.0,65,0.00,,---,0.00,VWS V14.01,2013-08-04 13:58:00,
2013-08-04 10:03:00,73.3,60.0,29.84,WNW,301,3.0,4.0,63,0.00,,---,0.00,VWS V14.01,2013-08-04 14:03:00,
2013-08-04 10:08:00,73.1,60.2,29.84,WNW,301,0.0,3.0,64,0.00,,---,0.00,VWS V14.01,2013-08-04 14:08:00,
2013-08-04 10:13:00,73.5,60.2,29.84,WNW,301,1.0,3.0,63,0.00,,---,0.00,VWS V14.01,2013-08-04 14:13:00,
2013-08-04 10:18:00,73.5,59.7,29.84,WNW,301,2.0,2.0,62,0.00,,---,0.00,VWS V14.01,2013-08-04 14:18:00,
2013-08-04 10:23:00,73.5,60.2,29.84,WNW,301,0.0,4.0,63,0.00,,---,0.00,VWS V14.01,2013-08-04 14:23:00,
2013-08-04 10:28:00,74.0,59.2,29.84,WNW,301,0.0,3.0,60,0.00,,---,0.00,VWS V14.01,2013-08-04 14:28:00,
2013-08-04 10:33:00,74.6,59.8,29.84,WNW,301,0.0,3.0,60,0.00,,---,0.00,VWS V14.01,2013-08-04 14:33:00,
2013-08-04 10:38:00,74.9,59.1,29.84,WNW,301,0.0,3.0,58,0.00,,---,0.00,VWS V14.01,2013-08-04 14:38:00,
2013-08-04 10:43:00,75.3,59.5,29.84,WNW,300,2.0,3.0,58,0.00,,---,0.00,VWS V14.01,2013-08-04 14:43:00,
2013-08-04 10:48:00,75.6,59.8,29.84,WNW,293,0.0,4.0,58,0.00,,---,0.00,VWS V14.01,2013-08-04 14:48:00,
2013-08-04 10:53:00,76.1,61.7,29.84,SSE,162,1.0,4.0,61,0.00,,---,0.00,VWS V14.01,2013-08-04 14:53:00,
2013-08-04 10:58:00,76.2,60.8,29.84,SSW,197,4.0,5.0,59,0.00,,---,0.00,VWS V14.01,2013-08-04 14:58:00,
2013-08-04 11:03:00,76.1,61.2,29.84,South,177,0.0,4.0,60,0.00,,---,0.00,VWS V14.01,2013-08-04 15:03:00,
2013-08-04 11:08:00,76.2,60.8,29.84,SW,222,6.0,7.0,59,0.00,,---,0.00,VWS V14.01,2013-08-04 15:08:00,
2013-08-04 11:13:00,76.2,60.4,29.84,SW,226,2.0,7.0,58,0.00,,---,0.00,VWS V14.01,2013-08-04 15:13:00,
2013-08-04 11:18:00,76.0,59.7,29.84,SW,227,6.0,10.0,57,0.00,,---,0.00,VWS V14.01,2013-08-04 15:18:00,
2013-08-04 11:23:00,75.9,60.6,29.84,SW,228,4.0,7.0,59,0.00,,---,0.00,VWS V14.01,2013-08-04 15:23:00,
2013-08-04 11:28:00,75.7,60.8,29.84,SSW,206,4.0,6.0,60,0.00,,---,0.00,VWS V14.01,2013-08-04 15:28:00,
2013-08-04 11:33:00,75.7,60.8,29.84,SSW,211,2.0,7.0,60,0.00,,---,0.00,VWS V14.01,2013-08-04 15:33:00,
2013-08-04 11:39:00,75.4,60.6,29.84,SSW,195,1.0,6.0,60,0.00,,---,0.00,VWS V14.01,2013-08-04 15:39:00,
2013-08-04 11:44:00,75.3,60.5,29.84,South,183,1.0,11.0,60,0.00,,---,0.00,VWS V14.01,2013-08-04 15:44:00,
2013-08-04 11:49:00,75.4,61.5,29.84,SSE,158,3.0,6.0,62,0.00,,---,0.00,VWS V14.01,2013-08-04 15:49:00,
2013-08-04 11:54:00,75.7,62.2,29.84,SSW,192,2.0,11.0,63,0.00,,---,0.00,VWS V14.01,2013-08-04 15:54:00,
2013-08-04 11:59:00,75.6,62.1,29.84,SSW,210,3.0,7.0,63,0.00,,---,0.00,VWS V14.01,2013-08-04 15:59:00,
2013-08-04 12:04:00,75.6,62.6,29.84,South,184,0.0,6.0,64,0.00,,---,0.00,VWS V14.01,2013-08-04 16:04:00,
2013-08-04 12:09:00,75.7,62.7,29.84,SSW,210,3.0,6.0,64,0.00,,---,0.00,VWS V14.01,2013-08-04 16:09:00,
2013-08-04 12:14:00,75.3,63.6,29.84,South,179,1.0,9.0,67,0.00,,---,0.00,VWS V14.01,2013-08-04 16:14:00,
2013-08-04 12:18:00,75.0,63.3,29.84,South,178,4.0,8.0,67,0.00,,---,0.00,VWS V14.01,2013-08-04 16:18:00,
2013-08-04 12:24:00,75.0,62.9,29.83,South,188,2.0,10.0,66,0.00,,---,0.00,VWS V14.01,2013-08-04 16:24:00,
2013-08-04 12:29:00,74.8,63.5,29.83,SSE,161,3.0,7.0,68,0.00,,---,0.00,VWS V14.01,2013-08-04 16:29:00,
2013-08-04 12:34:00,74.9,62.3,29.83,SSW,196,1.0,6.0,65,0.00,,---,0.00,VWS V14.01,2013-08-04 16:34:00,
2013-08-04 12:39:00,75.4,64.5,29.83,South,179,3.0,4.0,69,0.00,,---,0.00,VWS V14.01,2013-08-04 16:39:00,
2013-08-04 12:44:00,75.8,64.5,29.83,South,184,2.0,6.0,68,0.00,,---,0.00,VWS V14.01,2013-08-04 16:44:00,
2013-08-04 12:48:00,75.7,64.4,29.82,South,188,2.0,6.0,68,0.00,,---,0.00,VWS V14.01,2013-08-04 16:48:00,
2013-08-04 12:54:00,75.8,64.5,29.82,SSW,212,1.0,6.0,68,0.00,,---,0.00,VWS V14.01,2013-08-04 16:54:00,
2013-08-04 12:59:00,76.0,65.5,29.82,SSE,165,0.0,4.0,70,0.00,,---,0.00,VWS V14.01,2013-08-04 16:59:00,
2013-08-04 13:04:00,75.7,64.0,29.82,South,175,0.0,4.0,67,0.00,,---,0.00,VWS V14.01,2013-08-04 17:04:00,
2013-08-04 13:09:00,76.1,63.0,29.82,South,188,1.0,6.0,64,0.00,,---,0.00,VWS V14.01,2013-08-04 17:09:00,
2013-08-04 13:13:00,76.6,62.6,29.82,South,185,0.0,4.0,62,0.00,,---,0.00,VWS V14.01,2013-08-04 17:13:00,
2013-08-04 13:19:00,76.8,60.9,29.82,WSW,256,3.0,5.0,58,0.00,,---,0.00,VWS V14.01,2013-08-04 17:19:00,
2013-08-04 13:24:00,77.0,59.6,29.82,WNW,282,0.0,11.0,55,0.00,,---,0.00,VWS V14.01,2013-08-04 17:24:00,
2013-08-04 13:29:00,77.2,60.3,29.82,WNW,283,2.0,6.0,56,0.00,,---,0.00,VWS V14.01,2013-08-04 17:29:00,
2013-08-04 13:34:00,77.3,59.4,29.81,WNW,283,0.0,5.0,54,0.00,,---,0.00,VWS V14.01,2013-08-04 17:34:00,
2013-08-04 13:39:00,77.3,59.9,29.82,WNW,288,5.0,7.0,55,0.00,,---,0.00,VWS V14.01,2013-08-04 17:39:00,
2013-08-04 13:44:00,77.8,57.7,29.82,WNW,295,0.0,12.0,50,0.00,,---,0.00,VWS V14.01,2013-08-04 17:44:00,
2013-08-04 13:49:00,78.2,56.9,29.81,NW,321,4.0,13.0,48,0.00,,---,0.00,VWS V14.01,2013-08-04 17:49:00,
2013-08-04 13:54:00,78.2,56.3,29.81,WNW,290,0.0,13.0,47,0.00,,---,0.00,VWS V14.01,2013-08-04 17:54:00,
2013-08-04 13:59:00,78.7,56.2,29.81,WSW,245,5.0,13.0,46,0.00,,---,0.00,VWS V14.01,2013-08-04 17:59:00,
2013-08-04 14:04:00,78.5,56.6,29.81,WNW,291,1.0,11.0,47,0.00,,---,0.00,VWS V14.01,2013-08-04 18:04:00,
2013-08-04 14:09:00,78.5,57.2,29.81,WNW,302,7.0,13.0,48,0.00,,---,0.00,VWS V14.01,2013-08-04 18:09:00,
2013-08-04 14:14:00,78.5,58.3,29.81,WNW,290,5.0,9.0,50,0.00,,---,0.00,VWS V14.01,2013-08-04 18:14:00,
2013-08-04 14:19:00,78.7,58.0,29.81,WNW,283,5.0,10.0,49,0.00,,---,0.00,VWS V14.01,2013-08-04 18:19:00,
2013-08-04 14:24:00,78.8,58.6,29.81,West,264,3.0,8.0,50,0.00,,---,0.00,VWS V14.01,2013-08-04 18:24:00,
2013-08-04 14:29:00,79.2,57.2,29.81,WSW,251,5.0,13.0,47,0.00,,---,0.00,VWS V14.01,2013-08-04 18:29:00,
2013-08-04 14:34:00,79.5,56.3,29.81,West,263,1.0,14.0,45,0.00,,---,0.00,VWS V14.01,2013-08-04 18:34:00,
2013-08-04 14:39:00,79.8,58.4,29.81,West,280,7.0,11.0,48,0.00,,---,0.00,VWS V14.01,2013-08-04 18:39:00,
2013-08-04 14:44:00,79.9,58.5,29.81,WNW,285,1.0,10.0,48,0.00,,---,0.00,VWS V14.01,2013-08-04 18:44:00,
2013-08-04 14:49:00,79.7,58.3,29.81,WNW,303,1.0,9.0,48,0.00,,---,0.00,VWS V14.01,2013-08-04 18:49:00,
2013-08-04 14:54:00,79.5,56.9,29.81,West,278,3.0,10.0,46,0.00,,---,0.00,VWS V14.01,2013-08-04 18:54:00,
2013-08-04 14:59:00,79.3,54.9,29.81,NW,311,1.0,9.0,43,0.00,,---,0.00,VWS V14.01,2013-08-04 18:59:00,
2013-08-04 15:04:00,79.0,55.9,29.80,West,277,5.0,10.0,45,0.00,,---,0.00,VWS V14.01,2013-08-04 19:04:00,
2013-08-04 15:09:00,79.3,56.8,29.80,WNW,290,7.0,10.0,46,0.00,,---,0.00,VWS V14.01,2013-08-04 19:09:00,
2013-08-04 15:14:00,79.1,55.3,29.81,WNW,295,1.0,12.0,44,0.00,,---,0.00,VWS V14.01,2013-08-04 19:14:00,
2013-08-04 15:19:00,79.1,56.0,29.81,WNW,283,5.0,6.0,45,0.00,,---,0.00,VWS V14.01,2013-08-04 19:19:00,
2013-08-04 15:24:00,79.2,56.0,29.80,WNW,292,1.0,6.0,45,0.00,,---,0.00,VWS V14.01,2013-08-04 19:24:00,
2013-08-04 15:29:00,79.4,60.8,29.80,SW,231,1.0,12.0,53,0.00,,---,0.00,VWS V14.01,2013-08-04 19:29:00,
2013-08-04 15:34:00,78.9,57.0,29.80,WSW,244,5.0,10.0,47,0.00,,---,0.00,VWS V14.01,2013-08-04 19:34:00,
2013-08-04 15:39:00,78.6,56.7,29.80,WSW,239,2.0,9.0,47,0.00,,---,0.00,VWS V14.01,2013-08-04 19:39:00,
2013-08-04 15:44:00,78.6,64.5,29.80,SW,224,0.0,12.0,62,0.00,,---,0.00,VWS V14.01,2013-08-04 19:44:00,
2013-08-04 15:49:00,78.1,60.6,29.80,WSW,239,4.0,9.0,55,0.00,,---,0.00,VWS V14.01,2013-08-04 19:49:00,
2013-08-04 15:54:00,78.7,58.0,29.80,SW,233,1.0,11.0,49,0.00,,---,0.00,VWS V14.01,2013-08-04 19:54:00,
2013-08-04 15:59:00,79.5,59.2,29.80,SW,235,4.0,10.0,50,0.00,,---,0.00,VWS V14.01,2013-08-04 19:59:00,
2013-08-04 16:04:00,79.5,63.0,29.80,WSW,243,6.0,12.0,57,0.00,,---,0.00,VWS V14.01,2013-08-04 20:04:00,
2013-08-04 16:09:00,79.0,64.4,29.80,SW,218,5.0,19.0,61,0.00,,---,0.00,VWS V14.01,2013-08-04 20:09:00,
2013-08-04 16:14:00,78.3,65.1,29.80,SW,217,8.0,17.0,64,0.00,,---,0.00,VWS V14.01,2013-08-04 20:14:00,
2013-08-04 16:19:00,77.4,61.5,29.80,SW,226,2.0,14.0,58,0.00,,---,0.00,VWS V14.01,2013-08-04 20:19:00,
2013-08-04 16:24:00,78.0,58.4,29.80,SW,230,3.0,5.0,51,0.00,,---,0.00,VWS V14.01,2013-08-04 20:24:00,
2013-08-04 16:29:00,78.8,56.3,29.80,West,262,6.0,13.0,46,0.00,,---,0.00,VWS V14.01,2013-08-04 20:29:00,
2013-08-04 16:34:00,79.2,56.7,29.80,West,274,5.0,13.0,46,0.00,,---,0.00,VWS V14.01,2013-08-04 20:34:00,
2013-08-04 16:39:00,79.5,56.3,29.80,West,261,7.0,13.0,45,0.00,,---,0.00,VWS V14.01,2013-08-04 20:39:00,
2013-08-04 16:44:00,79.7,57.7,29.80,WSW,253,2.0,9.0,47,0.00,,---,0.00,VWS V14.01,2013-08-04 20:44:00,
2013-08-04 16:49:00,79.8,57.2,29.80,WSW,239,15.0,15.0,46,0.00,,---,0.00,VWS V14.01,2013-08-04 20:49:00,
2013-08-04 16:54:00,79.7,58.9,29.80,WSW,238,6.0,12.0,49,0.00,,---,0.00,VWS V14.01,2013-08-04 20:54:00,
2013-08-04 16:59:00,79.7,59.4,29.80,SW,230,7.0,12.0,50,0.00,,---,0.00,VWS V14.01,2013-08-04 20:59:00,
2013-08-04 17:04:00,79.9,59.0,29.80,WSW,243,2.0,12.0,49,0.00,,---,0.00,VWS V14.01,2013-08-04 21:04:00,
2013-08-04 17:09:00,80.0,58.0,29.80,West,266,1.0,9.0,47,0.00,,---,0.00,VWS V14.01,2013-08-04 21:09:00,
2013-08-04 17:14:00,80.2,58.2,29.80,WSW,242,5.0,12.0,47,0.00,,---,0.00,VWS V14.01,2013-08-04 21:14:00,
2013-08-04 17:19:00,80.0,58.0,29.80,West,267,11.0,17.0,47,0.00,,---,0.00,VWS V14.01,2013-08-04 21:19:00,
2013-08-04 17:24:00,79.8,58.4,29.80,WSW,256,2.0,11.0,48,0.00,,---,0.00,VWS V14.01,2013-08-04 21:24:00,
2013-08-04 17:29:00,79.7,58.3,29.80,WNW,289,2.0,10.0,48,0.00,,---,0.00,VWS V14.01,2013-08-04 21:29:00,
2013-08-04 17:34:00,79.6,57.6,29.80,West,266,10.0,13.0,47,0.00,,---,0.00,VWS V14.01,2013-08-04 21:34:00,
2013-08-04 17:39:00,79.4,58.0,29.80,WSW,257,12.0,12.0,48,0.00,,---,0.00,VWS V14.01,2013-08-04 21:39:00,
2013-08-04 17:45:00,79.4,56.8,29.80,West,278,3.0,12.0,46,0.00,,---,0.00,VWS V14.01,2013-08-04 21:45:00,
2013-08-04 17:49:00,79.3,58.5,29.79,SW,230,4.0,14.0,49,0.00,,---,0.00,VWS V14.01,2013-08-04 21:49:00,
2013-08-04 17:54:00,79.1,58.9,29.80,WSW,243,7.0,12.0,50,0.00,,---,0.00,VWS V14.01,2013-08-04 21:54:00,
2013-08-04 17:59:00,78.9,59.2,29.80,WSW,246,14.0,14.0,51,0.00,,---,0.00,VWS V14.01,2013-08-04 21:59:00,
2013-08-04 18:04:00,78.5,58.3,29.79,WSW,241,6.0,11.0,50,0.00,,---,0.00,VWS V14.01,2013-08-04 22:04:00,
2013-08-04 18:09:00,77.9,58.9,29.80,WSW,247,1.0,10.0,52,0.00,,---,0.00,VWS V14.01,2013-08-04 22:09:00,
2013-08-04 18:14:00,77.4,59.5,29.80,WNW,303,0.0,13.0,54,0.00,,---,0.00,VWS V14.01,2013-08-04 22:14:00,
2013-08-04 18:19:00,76.9,59.0,29.80,West,275,1.0,10.0,54,0.00,,---,0.00,VWS V14.01,2013-08-04 22:19:00,
2013-08-04 18:24:00,76.6,59.2,29.80,West,263,3.0,8.0,55,0.00,,---,0.00,VWS V14.01,2013-08-04 22:24:00,
2013-08-04 18:29:00,76.3,59.5,29.80,WSW,239,10.0,10.0,56,0.00,,---,0.00,VWS V14.01,2013-08-04 22:29:00,
2013-08-04 18:34:00,75.9,62.9,29.82,WNW,289,4.0,11.0,64,0.01,,---,0.01,VWS V14.01,2013-08-04 22:34:00,
2013-08-04 18:39:00,71.1,61.6,29.82,North,349,7.0,24.0,72,0.02,,---,0.02,VWS V14.01,2013-08-04 22:39:00,
2013-08-04 18:44:00,68.1,61.0,29.83,NW,315,10.0,14.0,78,0.03,,---,0.03,VWS V14.01,2013-08-04 22:44:00,
2013-08-04 18:49:00,66.9,61.2,29.83,WNW,296,1.0,10.0,82,0.04,,---,0.04,VWS V14.01,2013-08-04 22:49:00,
2013-08-04 18:54:00,66.4,60.7,29.83,NW,314,7.0,10.0,82,0.05,,---,0.05,VWS V14.01,2013-08-04 22:54:00,
2013-08-04 18:59:00,66.4,62.1,29.83,NW,316,0.0,10.0,86,0.06,,---,0.06,VWS V14.01,2013-08-04 22:59:00,
2013-08-04 19:04:00,66.4,62.4,29.83,NW,315,0.0,2.0,87,0.06,,---,0.06,VWS V14.01,2013-08-04 23:04:00,
2013-08-04 19:09:00,66.5,63.2,29.83,NW,315,0.0,1.0,89,0.07,,---,0.07,VWS V14.01,2013-08-04 23:09:00,
2013-08-04 19:14:00,66.5,63.5,29.83,NW,316,2.0,4.0,90,0.08,,---,0.08,VWS V14.01,2013-08-04 23:14:00,
2013-08-04 19:19:00,66.5,62.2,29.83,NW,318,4.0,7.0,86,0.08,,---,0.08,VWS V14.01,2013-08-04 23:19:00,
2013-08-04 19:24:00,66.7,62.4,29.83,NW,319,4.0,6.0,86,0.09,,---,0.09,VWS V14.01,2013-08-04 23:24:00,
2013-08-04 19:29:00,66.6,62.3,29.84,NW,320,4.0,7.0,86,0.09,,---,0.09,VWS V14.01,2013-08-04 23:29:00,
2013-08-04 19:34:00,66.5,62.2,29.84,NW,305,2.0,6.0,86,0.10,,---,0.10,VWS V14.01,2013-08-04 23:34:00,
2013-08-04 19:39:00,66.4,62.1,29.83,NW,305,4.0,6.0,86,0.09,,---,0.10,VWS V14.01,2013-08-04 23:39:00,
2013-08-04 19:44:00,66.4,62.4,29.84,WNW,303,4.0,7.0,87,0.08,,---,0.10,VWS V14.01,2013-08-04 23:44:00,
2013-08-04 19:49:00,66.4,62.1,29.84,NW,307,5.0,7.0,86,0.08,,---,0.11,VWS V14.01,2013-08-04 23:49:00,
2013-08-04 19:54:00,66.5,61.5,29.84,WNW,289,3.0,11.0,84,0.07,,---,0.11,VWS V14.01,2013-08-04 23:54:00,
2013-08-04 19:59:00,66.6,61.6,29.84,WNW,297,4.0,6.0,84,0.06,,---,0.11,VWS V14.01,2013-08-04 23:59:00,
2013-08-04 20:04:00,66.5,61.2,29.84,NW,307,2.0,7.0,83,0.05,,---,0.11,VWS V14.01,2013-08-05 00:04:00,
2013-08-04 20:09:00,66.3,60.7,29.84,NW,311,2.0,8.0,82,0.06,,---,0.12,VWS V14.01,2013-08-05 00:09:00,
2013-08-04 20:14:00,66.1,61.5,29.85,NW,308,0.0,5.0,85,0.05,,---,0.12,VWS V14.01,2013-08-05 00:14:00,
2013-08-04 20:19:00,65.9,60.9,29.85,NW,310,3.0,6.0,84,0.04,,---,0.12,VWS V14.01,2013-08-05 00:19:00,
2013-08-04 20:24:00,66.0,60.7,29.86,NW,305,4.0,10.0,83,0.04,,---,0.12,VWS V14.01,2013-08-05 00:24:00,
2013-08-04 20:29:00,66.0,60.3,29.86,NW,311,1.0,7.0,82,0.03,,---,0.12,VWS V14.01,2013-08-05 00:29:00,
2013-08-04 20:34:00,66.0,60.0,29.86,NW,309,2.0,9.0,81,0.04,,---,0.13,VWS V14.01,2013-08-05 00:34:00,
2013-08-04 20:39:00,66.1,60.1,29.86,NW,316,3.0,8.0,81,0.03,,---,0.13,VWS V14.01,2013-08-05 00:39:00,
2013-08-04 20:44:00,66.0,60.0,29.87,WNW,299,2.0,9.0,81,0.03,,---,0.13,VWS V14.01,2013-08-05 00:44:00,
2013-08-04 20:49:00,65.9,59.9,29.87,WNW,300,1.0,6.0,81,0.03,,---,0.13,VWS V14.01,2013-08-05 00:49:00,
2013-08-04 20:54:00,65.7,60.1,29.88,NW,321,1.0,7.0,82,0.02,,---,0.13,VWS V14.01,2013-08-05 00:54:00,
2013-08-04 20:59:00,65.5,59.9,29.88,WNW,291,4.0,9.0,82,0.02,,---,0.13,VWS V14.01,2013-08-05 00:59:00,
2013-08-04 21:04:00,65.5,60.2,29.88,NW,326,5.0,9.0,83,0.02,,---,0.13,VWS V14.01,2013-08-05 01:04:00,
2013-08-04 21:09:00,65.5,60.2,29.89,NW,326,2.0,7.0,83,0.03,,---,0.14,VWS V14.01,2013-08-05 01:09:00,
2013-08-04 21:14:00,65.4,60.1,29.89,NW,320,1.0,6.0,83,0.02,,---,0.14,VWS V14.01,2013-08-05 01:14:00,
2013-08-04 21:19:00,65.3,60.0,29.89,NW,316,1.0,7.0,83,0.02,,---,0.14,VWS V14.01,2013-08-05 01:19:00,
2013-08-04 21:24:00,65.1,60.2,29.89,NW,316,1.0,3.0,84,0.02,,---,0.14,VWS V14.01,2013-08-05 01:24:00,
2013-08-04 21:29:00,64.9,60.3,29.89,NW,316,1.0,5.0,85,0.02,,---,0.14,VWS V14.01,2013-08-05 01:29:00,
2013-08-04 21:34:00,64.7,60.4,29.89,NW,317,2.0,2.0,86,0.02,,---,0.14,VWS V14.01,2013-08-05 01:34:00,
2013-08-04 21:39:00,64.5,60.9,29.89,NW,317,0.0,4.0,88,0.01,,---,0.14,VWS V14.01,2013-08-05 01:39:00,
2013-08-04 21:44:00,64.3,60.7,29.89,NW,316,0.0,3.0,88,0.01,,---,0.14,VWS V14.01,2013-08-05 01:44:00,
2013-08-04 21:49:00,64.1,60.8,29.89,NW,317,0.0,4.0,89,0.01,,---,0.14,VWS V14.01,2013-08-05 01:49:00,
2013-08-04 21:54:00,63.8,60.8,29.89,NW,316,1.0,2.0,90,0.01,,---,0.14,VWS V14.01,2013-08-05 01:54:00,
2013-08-04 21:59:00,63.6,60.6,29.89,NW,316,0.0,3.0,90,0.02,,---,0.15,VWS V14.01,2013-08-05 01:59:00,
2013-08-04 22:04:00,63.5,60.8,29.89,NW,317,0.0,2.0,91,0.02,,---,0.15,VWS V14.01,2013-08-05 02:04:00,
2013-08-04 22:09:00,63.3,60.6,29.89,NW,317,0.0,2.0,91,0.02,,---,0.15,VWS V14.01,2013-08-05 02:09:00,
2013-08-04 22:14:00,63.2,60.5,29.89,NW,316,0.0,2.0,91,0.01,,---,0.15,VWS V14.01,2013-08-05 02:14:00,
2013-08-04 22:19:00,63.0,60.6,29.89,NW,316,0.0,2.0,92,0.01,,---,0.15,VWS V14.01,2013-08-05 02:19:00,
2013-08-04 22:24:00,62.9,60.5,29.89,NW,317,0.0,2.0,92,0.01,,---,0.15,VWS V14.01,2013-08-05 02:24:00,
2013-08-04 22:29:00,62.7,60.0,29.89,NW,317,2.0,4.0,91,0.01,,---,0.15,VWS V14.01,2013-08-05 02:29:00,
2013-08-04 22:34:00,62.7,60.0,29.89,NW,316,0.0,5.0,91,0.01,,---,0.15,VWS V14.01,2013-08-05 02:34:00,
2013-08-04 22:39:00,62.7,60.0,29.89,NW,313,2.0,7.0,91,0.01,,---,0.15,VWS V14.01,2013-08-05 02:39:00,
2013-08-04 22:44:00,62.8,60.1,29.89,NW,313,0.0,4.0,91,0.01,,---,0.15,VWS V14.01,2013-08-05 02:44:00,
2013-08-04 22:50:00,62.9,60.2,29.89,NW,313,0.0,4.0,91,0.01,,---,0.15,VWS V14.01,2013-08-05 02:50:00,
2013-08-04 22:55:00,63.1,60.1,29.89,NW,314,0.0,7.0,90,0.01,,---,0.15,VWS V14.01,2013-08-05 02:55:00,
2013-08-04 22:59:00,63.1,60.1,29.89,NW,318,4.0,6.0,90,0.01,,---,0.15,VWS V14.01,2013-08-05 02:59:00,
2013-08-04 23:05:00,63.3,60.0,29.89,NW,310,2.0,6.0,89,0.00,,---,0.15,VWS V14.01,2013-08-05 03:05:00,
2013-08-04 23:10:00,63.6,60.0,29.89,NW,307,3.0,8.0,88,0.00,,---,0.15,VWS V14.01,2013-08-05 03:10:00,
2013-08-04 23:15:00,63.8,59.9,29.89,NW,305,0.0,5.0,87,0.01,,---,0.16,VWS V14.01,2013-08-05 03:15:00,
2013-08-04 23:20:00,64.0,59.7,29.89,WNW,300,3.0,7.0,86,0.01,,---,0.16,VWS V14.01,2013-08-05 03:20:00,
2013-08-04 23:25:00,64.0,59.7,29.89,WNW,299,1.0,5.0,86,0.01,,---,0.16,VWS V14.01,2013-08-05 03:25:00,
2013-08-04 23:30:00,63.8,59.9,29.89,WNW,297,1.0,4.0,87,0.01,,---,0.16,VWS V14.01,2013-08-05 03:30:00,
2013-08-04 23:35:00,63.5,59.6,29.89,NW,305,5.0,9.0,87,0.01,,---,0.16,VWS V14.01,2013-08-05 03:35:00,
2013-08-04 23:40:00,63.5,59.6,29.89,WNW,288,2.0,8.0,87,0.01,,---,0.16,VWS V14.01,2013-08-05 03:40:00,
2013-08-04 23:45:00,63.6,59.3,29.89,NW,314,7.0,10.0,86,0.01,,---,0.16,VWS V14.01,2013-08-05 03:45:00,
2013-08-04 23:50:00,63.8,59.5,29.89,NNW,329,4.0,10.0,86,0.01,,---,0.16,VWS V14.01,2013-08-05 03:50:00,
2013-08-04 23:55:00,64.0,59.4,29.90,West,260,4.0,11.0,85,0.01,,---,0.16,VWS V14.01,2013-08-05 03:55:00,